Regional Weather Roundup
Issued by NWS

Home | Current Version | Previous Version | Graphics & Text | Print | Product List | Glossary Off
Versions: 1 2 3 4 5 6 7 8 9 10 11 12 13 14 15 16 17 18 19 20 21 22 23 24 25 26 27 28 29 30 31 32 33 34 35 36 37 38 39 40 41 42 43 44 45 46 47 48 49 50

000
ASUS43 KLSX 190707
RWRMO

WEATHER SUMMARY FOR MISSOURI
NATIONAL WEATHER SERVICE SPRINGFIELD MO
200 AM CDT THU OCT 19 2017

NOTE: "FAIR" INDICATES FEW OR NO CLOUDS BELOW 12,000 FEET WITH NO
       SIGNIFICANT WEATHER AND/OR OBSTRUCTIONS TO VISIBILITY.
       CURRENT SKY AND/OR WEATHER CONDITIONS ARE NOT AVAILABLE FOR
       CHILLICOTHE AND FARMINGTON.

MOZ001>031-035>038-043-044-053-054-190800-
...NORTHERN AND WESTERN MISSOURI...

CITY           SKY/WX    TMP DP  RH WIND       PRES   REMARKS
KANSAS CTY INT CLEAR     55  49  80 S3        30.07R
KANSAS C DTWN  CLEAR     62  50  64 CALM      30.06R
LEE`S SUMMIT   CLEAR     59  49  69 SW10      30.07S
ST JOSEPH      FOG       46  46 100 CALM      30.05S VSB 1/2
CHILLICOTHE      N/A     53  50  89 CALM      30.07R
KIRKSVILLE     CLEAR     50  48  93 SW3       30.08R

$$
MOZ066>068-077>081-088>096-101>105-190800-
...SOUTHWEST MISSOURI...

CITY           SKY/WX    TMP DP  RH WIND       PRES   REMARKS
SPRINGFIELD    CLEAR     54  45  71 CALM      30.13R
JOPLIN         CLOUDY    54  48  80 S6        30.11S
BRANSON          N/A     54  46  76 CALM      30.14R

$$
MOZ032>034-039>042-045>050-055>058-069>072-190800-
...CENTRAL MISSOURI...

CITY           SKY/WX    TMP DP  RH WIND       PRES   REMARKS
COLUMBIA       CLEAR     55  46  71 S7        30.11R
JEFFERSON CITY CLEAR     50  45  83 E5        30.11R
ROLLA          CLEAR     53  47  79 S10       30.14R
SEDALIA        CLEAR     60  50  69 SW10      30.10S
WHITEMAN AFB   CLEAR     53  48  84 SW8       30.05R
WARRENSBURG    CLEAR     54  48  82 S7        30.08S
OSAGE BEACH    CLEAR     50  47  89 CALM      30.14R

$$
MOZ051-052-059>065-190800-
...EAST CENTRAL MISSOURI...

CITY           SKY/WX    TMP DP  RH WIND       PRES   REMARKS
ST LOUIS INTL  CLEAR     58  49  72 S5        30.13S
SPIRIT OF STL  CLEAR     50  48  93 CALM      30.12R
ST CHARLES     CLEAR     48  44  86 E6        30.12R

$$
MOZ072>076-082>087-097>100-106>115-190800-
...SOUTH CENTRAL AND SOUTHEAST MISSOURI...

CITY           SKY/WX    TMP DP  RH WIND       PRES   REMARKS
CAPE GIRARDEAU CLEAR     53  46  77 CALM      30.18R
FARMINGTON     CLEAR     58  47  66 S5        30.16R
POPLAR BLUFF   CLEAR     47  46  97 CALM      30.17R
WEST PLAINS    CLEAR     57  48  72 S6        30.16S

$$



USA.gov is the U.S. government's official web portal to all federal, state and local government web resources and services.